Change the Weather History Date:

Tuesday, August 12, 2014

  Actual Average Record
Temperature  
Mean Temperature 70 °F 76 °F  
Max Temperature 86 °F 88 °F 98 °F (2010)
Min Temperature 53 °F 63 °F 53 °F (2014)
Degree Days  
Heating Degree Days 0 0  
Month to date heating degree days 0 0  
Since 1 June heating degree days 49 59  
Since 1 July heating degree days 12 5  
Cooling Degree Days 5 11  
Month to date cooling degree days 89 134  
Year to date cooling degree days 573 640  
Since 1 June cooling degree days 492 610  
Growing Degree Days 20 (Base 50)    
Moisture  
Dew Point 52 °F    
Average Humidity 58    
Maximum Humidity 83    
Minimum Humidity 32    
Precipitation  
Precipitation 0.00 in 0.09 in 0.17 in (2011)
Month to date precipitation 2.52 1.03  
Year to date precipitation 11.72 15.71  
Sea Level Pressure  
Sea Level Pressure 30.11 in    
Wind  
Wind Speed 6 mph (SE)    
Max Wind Speed 12 mph    
Max Gust Speed 15 mph    
Visibility 10 miles    
Events      
T = Trace of Precipitation, MM = Missing Value Source: NWS Daily Summary

Daily Weather History Graph

Daily Weather History Graph

Search for Another Location

Airport or City:

Trip Planner

Search our weather history database for the weather conditions in past years. The results will help you decide how hot, cold, wet, or windy it might be!

Date:

Astronomy

Aug. 12, 2014 Rise Set
Actual Time 6:41 AM CDT 8:46 PM CDT
Civil Twilight 6:09 AM CDT 9:17 PM CDT
Nautical Twilight 5:31 AM CDT 9:56 PM CDT
Astronomical Twilight 4:49 AM CDT 10:38 PM CDT
Moon 9:48 PM CDT (8/12) 9:06 AM CDT (8/12)
Length of Visible Light 15h 07m
Length of Day
14h 05m
Waning Gibbous, 94% of the Moon is Illuminated
Aug 12
Waning Gibbous
Aug 17
Last Quarter
Aug 25
New
Sep 2
First Quarter
Sep 8
Full

Hourly Weather History & Observations

Time (CDT) Temp. Heat Index Dew Point Humidity Pressure Visibility Wind Dir Wind Speed Gust Speed Precip Events Conditions
12:53 AM 63.0 °F - 51.1 °F 65% 30.17 in 10.0 mi SE 6.9 mph - N/A   Clear
1:53 AM 57.0 °F - 51.1 °F 81% 30.18 in 10.0 mi SSE 6.9 mph - N/A   Clear
2:53 AM 57.0 °F - 50.0 °F 77% 30.18 in 10.0 mi SSE 6.9 mph - N/A   Clear
4:53 AM 55.9 °F - 50.0 °F 80% 30.17 in 10.0 mi SSE 5.8 mph - N/A   Clear
5:53 AM 55.9 °F - 50.0 °F 80% 30.17 in 10.0 mi SSE 4.6 mph - N/A   Clear
6:53 AM 55.0 °F - 50.0 °F 83% 30.17 in 10.0 mi SE 6.9 mph - N/A   Clear
7:53 AM 60.1 °F - 52.0 °F 75% 30.17 in 10.0 mi Calm Calm - N/A   Clear
8:53 AM 68.0 °F - 55.0 °F 63% 30.16 in 10.0 mi SSW 5.8 mph - N/A   Clear
9:53 AM 72.0 °F - 55.9 °F 57% 30.15 in 10.0 mi SSE 3.5 mph - N/A   Clear
10:53 AM 77.0 °F - 48.9 °F 37% 30.15 in 10.0 mi ESE 3.5 mph - N/A   Clear
12:53 PM 81.0 °F - 51.1 °F 35% 30.12 in 10.0 mi ESE 5.8 mph - N/A   Clear
1:53 PM 82.0 °F - 51.1 °F 34% 30.11 in 10.0 mi Calm Calm - N/A   Clear
2:53 PM 82.9 °F - 51.1 °F 33% 30.10 in 10.0 mi SSW 3.5 mph - N/A   Clear
3:53 PM 84.9 °F - 51.1 °F 31% 30.08 in 10.0 mi East 9.2 mph - N/A   Clear
4:53 PM 84.9 °F - 52.0 °F 32% 30.06 in 10.0 mi ESE 6.9 mph - N/A   Clear
5:53 PM 84.9 °F - 52.0 °F 32% 30.05 in 10.0 mi South 4.6 mph - N/A   Clear
6:53 PM 84.0 °F - 51.1 °F 32% 30.05 in 10.0 mi SE 6.9 mph - N/A   Clear
7:53 PM 80.1 °F 80.0 °F 54.0 °F 40% 30.04 in 10.0 mi ESE 6.9 mph - N/A   Clear
8:53 PM 75.0 °F - 57.0 °F 53% 30.04 in 10.0 mi ESE 5.8 mph - N/A   Clear
9:53 PM 70.0 °F - 55.9 °F 61% 30.06 in 10.0 mi SE 8.1 mph - N/A   Clear
10:53 PM 68.0 °F - 57.0 °F 68% 30.06 in 10.0 mi SE 8.1 mph - N/A   Clear
11:53 PM 68.0 °F - 55.9 °F 65% 30.06 in 10.0 mi SSE 11.5 mph - N/A   Clear